星链-31238 (STARLINK-31238 )

导读

STARLINK-31238是美国SpaceX星链互联网星座的成员,于2024年1月29日发射升空,属于Starlink Gen2系列卫星。它依托星链低轨星座布局,旨在为全球提供低延迟、高速率的卫星互联网服务,可覆盖偏远地区等地面网络难以触达的区域,强化星座整体通信覆盖能力与服务稳定性。

Basic Information
目录编号:
58853
目录名称:
STARLINK-31238
国际标识:
2024-019A
轨道中心:
EARTH
卫星名称:
星链-31238
卫星全名:
星链-31238 (STARLINK-31238 )
卫星状态:
在轨 (已飞行956 天)
发射日期:
2024-01-29 UTC
国别 :
美国 (US)
星等 :
--
This satellite is enrolled in the Space Conjunction Data Service (SCDS) and the current flight risk assessment level is: High Risk
Orbit Information
数据来源 国际轨道数据 AOE轨道数据
星历时间 2026-09-11T10:48:33+0800
15小时前
查看轨道信息
2026-09-07T01:00:00+0800
5天前
查看轨道信息
半长轴 6861.197km 6861.263km
偏心率 0.0001823 0.0003263
轨道倾角 43.001° 43.002°
近地点辐角 297.388° 244.096°
升交点赤经 281.507° 306.411°
平近点角 62.679° 322.618°
近地点 481.809km 480.887km
远地点 484.311km 485.365km
周期 94.267分钟 94.268分钟
每日圈数 15.275765 15.275545
Detailed Information
固有亮度:
5
最大亮度:
0.3
卫星平台:
Starlink v2.0 mini
覆盖范围:
全球
运营商:
太空探索技术公司
运营商所在国:
美国
制造商(研发单位):
太空探索技术公司
制造商所在国:
美国
使用方式:
暂无
Satellite Introduction
星链(Starlink)计划是由太空探索技术公司(SpaceX)提出的一个巨型低轨卫星互联网星座项目,计划在2019年至2024年间在太空搭建由约1.2万颗卫星组成的“星链”网络,其中1584颗将部署在地球上空550千米处的近地轨道,并从2020年开始工作。该卫星仍在工作。
2D Orbit Map
3D Orbit Map
Orbit Altitude Analysis Chart
Orbit Inclination Analysis Chart
Orbit Comprehensive Analysis Chart
View Comprehensive Chart
Miss Distance Evolution Trend with All Objects
Collision Probability Evolution Trend with All Objects